COSMOS 2251 DEB, 33912

Orbit data source: Space-Track

COSMOS 2251 DEB, 33912 is space debris in LEO originally from a launch on Wed, 16 Jun 1993 UTC launched from the Plesetsk Missile And Space Complex (PKMTR). The debris from Iridium 33, an American commercial communications satellite, has been tracked extensively since its accidental collision with the defunct Russian satellite Cosmos 2251 in 2009. This event, occurring at high speed in low Earth orbit (LEO), generated thousands of pieces of space debris, significantly increasing the risk of further collisions. The Iridium 33 debris cloud has impacted space traffic management and orbital debris mitigation strategies, making it a subject of ongoing study in space situational awareness.

Loading next visibility...
Identifier
33912, 1993-036DR
Orbit
LEO
Country
Flag of CISCIS
Related business
Manufacturer
Unknown
Mission
Spacecraft
Bus & Motor
Unknown
Mass
Unknown
Launch date (UTC)
1993-06-16 (33 years ago)
Launch vehicle
Unknown
Launch site
Plesetsk Missile And Space Complex (PKMTR)
Object type
Payload
Rocket body
Debris
Shape & HBR
Unknown shape, 0.1 m
Radar Cross Section
Small (<0.1 m²)

Expand to show TLE details & history
Last TLE update: 1 day ago

TLE from 1 day ago
0 COSMOS 2251 DEB
1 33912U 93036DR  25353.22487564  .00002117  00000-0  53130-3 0  9991
2 33912  74.0322 177.5082 0011332 256.6270 220.9065 14.51928831885272
Epoch: 2025-12-19T05:23Z
TLE epoch observation values (Epoch: 2025-12-19T05:23:49.255Z)
Latitude
58.66716°
Longitude
160.61235°
Altitude
735.007 km
Speed
7.49 km/s
True Right ascension
21h 58m 32s
True Declination
58° 30' 49"
Sunlit
Object was in daylight at epoch
Visualization orbit readout
Latitude
Unknown
Longitude
Unknown
Altitude
Unknown
Speed
Unknown
Apparent Right ascension
Unknown
Apparent Declination
Unknown
Sunlit
N/A
Visualization observer readout
Local Sidereal Time
06:43:12
Azimuth
Unknown
Elevation
Unknown
Doppler factor
Unknown
Orbital elements
Apogee altitude
725.003 km
Perigee altitude
708.922 km
Semi-major axis
7,095.099 km
Eccentricity
0.00113
Inclination
74.0322°
RAAN
177.5082°
Arg. of periapsis
256.627°
True anomaly
220.82156°
Mean anomaly
220.9065°
Eccentric anomaly
220.86402°
Mean motion
3.63166 °/min
Orbital period
99.13 mins
BSTAR
0.0005313
Loading maneuver chart data...
Computing Atmospheric mass density...

Documentation

Showing up to 5 results
|